Morrisville, VT

6:34 PM EST on November 15, 2019 (GMT -0500)
Morrisville Stowe State

Weather History for KMVL - September, 2019

Change the Weather History Date:

Friday, September 27, 2019

  Actual Average Record
Temperature  
Mean Temperature 54 °F 53 °F  
Max Temperature 68 °F 65 °F 86 °F (2017)
Min Temperature 42 °F 41 °F 34 °F (1997)
Degree Days  
Heating Degree Days 11 12  
Month to date heating degree days 199  
Since 1 July heating degree days 294  
Cooling Degree Days 0 0  
Month to date cooling degree days 13  
Year to date cooling degree days 260  
Growing Degree Days 4 (Base 50)    
Moisture  
Dew Point 45 °F    
Average Humidity 87    
Maximum Humidity 100    
Minimum Humidity 42    
Precipitation  
Precipitation 0.00 in 0.12 in 1.95 in (2002)
Month to date precipitation 3.03  
Year to date precipitation 26.79  
Sea Level Pressure  
Sea Level Pressure 30.04 in    
Wind  
Wind Speed 1 mph ()    
Max Wind Speed 6 mph    
Max Gust Speed -    
Visibility 5.4 miles    
Events Fog    
T = Trace of Precipitation, MM = Missing Value Source: Averaged Metar Reports

Daily Weather History Graph

Daily Weather History Graph

Search for Another Location

Airport or City:

Astronomy

Sep. 27, 2019 Rise Set
Actual Time 6:43 AM EDT 6:38 PM EDT
Civil Twilight 6:14 AM EDT 7:07 PM EDT
Nautical Twilight 5:40 AM EDT 7:41 PM EDT
Astronomical Twilight 5:05 AM EDT 8:16 PM EDT
Moon 4:54 AM EDT (9/27) 6:32 PM EDT (9/27)
Length of Visible Light 12h 53m
Length of Day
11h 55m
Waning Crescent, 2% of the Moon is Illuminated
Sep 27
Waning Crescent
Sep 28
New
Oct 5
First Quarter
Oct 13
Full
Oct 21
Last Quarter

Hourly Weather History & Observations

Time (EDT) Temp. Windchill Dew Point Humidity Pressure Visibility Wind Dir Wind Speed Gust Speed Precip Events Conditions
12:54 AM 52.0 °F - 46.9 °F 83% 29.92 in 10.0 mi West 3.5 mph - N/A   Clear
1:54 AM 51.1 °F - 46.0 °F 83% 29.94 in 10.0 mi Calm Calm - N/A   Clear
2:54 AM 46.0 °F - 44.1 °F 93% 29.96 in 10.0 mi Calm Calm - N/A   Clear
3:15 AM 45.0 °F 42.6 °F 44.1 °F 97% 29.95 in 1.2 mi North 4.6 mph - N/A   Partly Cloudy
3:19 AM 46.0 °F 44.8 °F 44.1 °F 93% 29.95 in 3.0 mi North 3.5 mph - N/A   Clear
3:39 AM 44.1 °F - 43.0 °F 96% 29.97 in 1.8 mi Calm Calm - N/A   Clear
3:46 AM 44.1 °F - 43.0 °F 96% 29.97 in 1.2 mi Calm Calm - N/A   Partly Cloudy
3:54 AM 44.1 °F - 43.0 °F 96% 29.99 in 1.0 mi Calm Calm - N/A   Mist
4:04 AM 44.1 °F - 43.0 °F 96% 29.97 in 1.8 mi Calm Calm - N/A   Mostly Cloudy
4:13 AM 44.1 °F - 43.0 °F 96% 29.98 in 3.0 mi Calm Calm - N/A   Mostly Cloudy
4:36 AM 43.0 °F - 43.0 °F 100% 29.98 in 1.5 mi Calm Calm - N/A   Mostly Cloudy
4:39 AM 43.0 °F - 43.0 °F 100% 29.98 in 0.8 mi Calm Calm - N/A   Mist
4:54 AM 44.1 °F - 43.0 °F 96% 30.00 in 0.5 mi Calm Calm - N/A Fog Fog
5:54 AM 42.1 °F 40.2 °F 41.0 °F 96% 30.04 in 0.8 mi North 3.5 mph - N/A   Mist
6:04 AM 43.0 °F - 42.1 °F 97% 30.02 in 1.2 mi Calm Calm - N/A   Overcast
6:21 AM 43.0 °F - 41.0 °F 93% 30.03 in 2.5 mi Calm Calm - N/A   Overcast
6:32 AM 42.1 °F - 41.0 °F 96% 30.04 in 1.0 mi Calm Calm - N/A   Mist
6:44 AM 42.1 °F - 41.0 °F 96% 30.04 in 0.5 mi Calm Calm - N/A Fog Fog
6:54 AM 42.1 °F - 41.0 °F 96% 30.07 in 0.5 mi Calm Calm - N/A Fog Fog
7:28 AM 43.0 °F - 42.1 °F 97% 30.07 in 1.2 mi Calm Calm - N/A   Mostly Cloudy
7:33 AM 43.0 °F - 42.1 °F 97% 30.07 in 3.0 mi Calm Calm - N/A   Mostly Cloudy
7:39 AM 43.0 °F - 42.1 °F 97% 30.08 in 1.8 mi Calm Calm - N/A   Mostly Cloudy
7:45 AM 43.0 °F - 42.1 °F 97% 30.07 in 0.8 mi Calm Calm - N/A   Mist
7:54 AM 43.0 °F - 43.0 °F 100% 30.09 in 0.5 mi Calm Calm - N/A Fog Fog
8:07 AM 45.0 °F - 44.1 °F 97% 30.08 in 1.2 mi Calm Calm - N/A   Overcast
8:19 AM 46.0 °F - 45.0 °F 96% 30.09 in 3.0 mi Calm Calm - N/A   Mostly Cloudy
8:33 AM 48.0 °F - 46.9 °F 96% 30.09 in 10.0 mi North 3.5 mph - N/A   Mostly Cloudy
8:54 AM 50.0 °F - 48.0 °F 93% 30.10 in 10.0 mi NNE 3.5 mph - N/A   Mostly Cloudy
9:54 AM 55.0 °F - 50.0 °F 83% 30.12 in 10.0 mi North 4.6 mph - N/A   Partly Cloudy
10:54 AM 60.1 °F - 48.9 °F 67% 30.12 in 10.0 mi Calm Calm - N/A   Partly Cloudy
11:54 AM 62.1 °F - 46.9 °F 58% 30.11 in 10.0 mi Calm Calm - N/A   Partly Cloudy
12:54 PM 64.0 °F - 48.0 °F 56% 30.10 in 10.0 mi ENE 3.5 mph - N/A   Clear
1:54 PM 64.9 °F - 48.0 °F 54% 30.08 in 10.0 mi Variable 4.6 mph - N/A   Partly Cloudy
2:54 PM 66.9 °F - 43.0 °F 42% 30.07 in 10.0 mi SW 4.6 mph - N/A   Clear
3:54 PM 66.9 °F - 44.1 °F 44% 30.05 in 10.0 mi SSW 5.8 mph - N/A   Clear
4:54 PM 66.9 °F - 44.1 °F 44% 30.06 in 10.0 mi SW 4.6 mph - N/A   Clear
5:54 PM 60.1 °F - 50.0 °F 69% 30.06 in 10.0 mi South 4.6 mph - N/A   Clear
6:54 PM 55.0 °F - 51.1 °F 86% 30.06 in 10.0 mi Calm Calm - N/A   Clear
7:54 PM 52.0 °F - 48.9 °F 89% 30.06 in 10.0 mi Calm Calm - N/A   Clear
8:54 PM 51.1 °F - 48.9 °F 92% 30.07 in 10.0 mi South 4.6 mph - N/A   Clear
9:54 PM 48.9 °F - 46.9 °F 93% 30.07 in 10.0 mi South 3.5 mph - N/A   Partly Cloudy
10:54 PM 48.9 °F - 46.9 °F 93% 30.06 in 10.0 mi Calm Calm - N/A   Partly Cloudy
11:54 PM 48.9 °F - 48.0 °F 97% 30.06 in 10.0 mi Calm Calm - N/A   Mostly Cloudy